Kuhtai, Austria 16 day weather forecast

Slopes altitude range -1 m - -1m

Number of lifts: -1 Pistes: -1km

In some cases the lift and piste totals shown are for the ski domain (e.g. Three Valleys) rather than individual resort (e.g. Courchevel)

Overview

The 16 day weather forecast is fully updated 4 times every day.

    • Thu 21 FEB 2019
    • Thu 21
    • 6C 13C
    • Fri 22 FEB 2019
    • Fri 22
    • 3C 13C
    • Sat 23 FEB 2019
    • Sat 23
    • 1C 7C
    • Sun 24 FEB 2019
    • Sun 24
    • 0C 10C
    • Mon 25 FEB 2019
    • Mon 25
    • 2C 14C
    • Tue 26 FEB 2019
    • Tue 26
    • 5C 18C
    • Wed 27 FEB 2019
    • Wed 27
    • 7C 18C
    • Thu 28 FEB 2019
    • Thu 28
    • 6C 17C
    • Fri 01 MAR 2019
    • Fri 01
    • 5C 15C
    • Sat 02 MAR 2019
    • Sat 02
    • 4C 13C
    • Sun 03 MAR 2019
    • Sun 03
    • 5C 17C
    • Mon 04 MAR 2019
    • Mon 04
    • 2C 9C
    • Tue 05 MAR 2019
    • Tue 05
    • 3C 8C
    • Wed 06 MAR 2019
    • Wed 06
    • 1C 11C
    • Thu 07 MAR 2019
    • Thu 07
    • 0C 6C
    • Fri 08 MAR 2019
    • Fri 08
    • -5C -1C

Date:

Time Type 0°C level Temp Chill Snow Cloud Speed Gust Dir Press
18:00 2400m 13°C 13_1 0cm 4% 1mph 1mph 1028mB
21:00 2302m 5°C 5_4 0cm 10% 4mph 4mph 1029mB
0:00 2238m 4°C 4_5 0cm 5% 5mph 6mph 1029mB
3:00 2218m 3°C 3_6 0cm 0% 6mph 7mph 1029mB
6:00 2160m 3°C 3_6 0cm 0% 6mph 7mph 1028mB
9:00 2137m 3°C 3_7 0cm 0% 7mph 13mph 1027mB
12:00 2079m 13°C 13_7 0cm 0% 7mph 11mph 1027mB
15:00 2090m 14°C 14_7 0cm 0% 7mph 10mph 1027mB
18:00 2178m 14°C 14_6 0cm 5% 6mph 12mph 1030mB
21:00 2292m 4°C 4_6 0cm 0% 6mph 11mph 1032mB
0:00 1994m 3°C 3_5 0cm 0% 5mph 6mph 1033mB
3:00 1780m 2°C 2_2 0cm 0% 2mph 3mph 1033mB
6:00 2410m 1°C 1_2 0cm 1% 2mph 3mph 1033mB
9:00 1392m 1°C 1_5 0cm 6% 5mph 5mph 1034mB
12:00 1440m 7°C 7_6 0cm 7% 6mph 5mph 1033mB
15:00 1520m 7°C 7_7 0cm 6% 7mph 7mph 1033mB
18:00 2471m 7°C 7_4 0cm 10% 4mph 7mph 1035mB
21:00 1330m 0°C 0_3 0cm 0% 3mph 5mph 1036mB
0:00 1083m 0°C 0_3 0cm 0% 3mph 4mph 1036mB
3:00 812m 0°C 0_3 0cm 0% 3mph 4mph 1036mB
6:00 2313m 0°C 0_2 0cm 1% 2mph 3mph 1036mB
9:00 2485m 0°C 0_3 0cm 8% 3mph 2mph 1035mB
12:00 2492m 10°C 10_5 0cm 5% 5mph 2mph 1034mB
15:00 2529m 10°C 10_3 0cm 0% 3mph 3mph 1033mB
18:00 2515m 10°C 10_2 0cm 0% 2mph 3mph 1034mB
21:00 2461m 3°C 3_0 0cm 0% 0mph 1mph 1036mB
0:00 2421m 3°C 3_0 0cm 0% 0mph 1mph 1036mB
3:00 2393m 2°C 2_1 0cm 0% 1mph 2mph 1036mB
6:00 2311m 1°C 1_1 0cm 1% 1mph 1mph 1037mB
9:00 2241m 2°C 2_3 0cm 0% 3mph 7mph 1037mB
12:00 2224m 14°C 14_2 0cm 0% 2mph 3mph 1036mB
15:00 2313m 14°C 14_3 0cm 0% 3mph 3mph 1035mB
18:00 2451m 14°C 14_2 0cm 0% 2mph 3mph 1035mB
21:00 2512m 6°C 6_4 0cm 0% 4mph 5mph 1036mB
0:00 2631m 5°C 5_4 0cm 12% 4mph 5mph 1035mB
3:00 2882m 5°C 5_5 0cm 27% 5mph 5mph 1033mB
6:00 3001m 5°C 5_4 0cm 14% 4mph 5mph 1033mB
9:00 2984m 5°C 5_4 0cm 17% 4mph 6mph 1031mB
12:00 2996m 18°C 18_2 0cm 12% 2mph 5mph 1030mB
15:00 3046m 18°C 18_1 0cm 10% 1mph 5mph 1028mB
18:00 3150m 18°C 18_3 0cm 6% 3mph 4mph 1029mB
21:00 3193m 8°C 8_5 0cm 0% 5mph 6mph 1029mB
0:00 3197m 7°C 7_5 0cm 0% 5mph 6mph 1028mB
3:00 3204m 7°C 7_5 0cm 0% 5mph 6mph 1026mB
6:00 3227m 7°C 7_5 0cm 0% 5mph 6mph 1026mB
9:00 3241m 7°C 7_4 0cm 1% 4mph 7mph 1025mB
12:00 3217m 18°C 18_2 0cm 3% 2mph 3mph 1024mB
15:00 3230m 18°C 18_5 0cm 2% 5mph 5mph 1023mB
18:00 3290m 18°C 18_3 0cm 1% 3mph 3mph 1025mB
21:00 3267m 8°C 8_1 0cm 0% 1mph 1mph 1026mB
0:00 3240m 7°C 7_2 0cm 0% 2mph 2mph 1025mB
3:00 3223m 6°C 6_2 0cm 0% 2mph 2mph 1024mB
6:00 3195m 6°C 6_2 0cm 0% 2mph 2mph 1024mB
9:00 3179m 6°C 6_0 0cm 0% 0mph 1mph 1023mB
12:00 3182m 17°C 17_4 0cm 0% 4mph 3mph 1021mB
15:00 3179m 17°C 17_5 0cm 0% 5mph 5mph 1020mB
18:00 3144m 17°C 17_3 0cm 9% 3mph 3mph 1022mB
21:00 3082m 8°C 8_2 0cm 12% 2mph 2mph 1023mB
0:00 2998m 7°C 7_3 0cm 10% 3mph 3mph 1023mB
3:00 2836m 6°C 6_3 0cm 17% 3mph 4mph 1023mB
6:00 2716m 5°C 5_3 0cm 9% 3mph 4mph 1023mB
9:00 2615m 5°C 5_1 0cm 6% 1mph 2mph 1023mB
12:00 2563m 15°C 15_4 0cm 8% 4mph 3mph 1022mB
15:00 2532m 15°C 15_6 0cm 14% 6mph 6mph 1021mB
18:00 2449m 15°C 15_3 0cm 23% 3mph 4mph 1022mB
21:00 2356m 7°C 7_0 0cm 32% 0mph 1mph 1023mB
0:00 2311m 6°C 6_0 0cm 31% 0mph 0mph 1023mB
3:00 2218m 5°C 5_1 0cm 31% 1mph 1mph 1022mB
6:00 2108m 4°C 4_0 0cm 35% 0mph 0mph 1022mB
9:00 2077m 4°C 4_4 0cm 45% 4mph 5mph 1021mB
12:00 2042m 13°C 13_7 0cm 42% 7mph 7mph 1019mB
15:00 2139m 13°C 13_7 0cm 37% 7mph 7mph 1017mB
18:00 2273m 13°C 13_4 0cm 28% 4mph 6mph 1018mB
21:00 2505m 6°C 6_3 0cm 26% 3mph 4mph 1018mB
0:00 2531m 5°C 5_3 0cm 30% 3mph 4mph 1016mB
3:00 2466m 5°C 5_4 0cm 66% 4mph 6mph 1014mB
6:00 2300m 4°C 4_2 0cm 61% 2mph 2mph 1015mB
9:00 2177m 5°C 5_3 0cm 1% 3mph 4mph 1016mB
12:00 2252m 17°C 17_1 0cm 5% 1mph 21mph 1016mB
Morning 0mm 0 2304m 3°C 3_5 0cm 58% 5mph 6mph 1022mB
Afternoon 0mm 0 2224m 9°C 9_9 0cm 97% 9mph 12mph 1017mB
Morning 0.03125mm 0.1875 2012m 4°C 4_6 0cm 96% 6mph 13mph 1013mB
Afternoon 0.015625mm 0.0625 2018m 8°C 8_10 0cm 92% 10mph 14mph 1009mB
Morning 0.078125mm 0.8125 2092m 2°C 2_2 0cm 85% 2mph 3mph 1006mB
Afternoon 0mm 0 2185m 11°C 11_6 0cm 36% 6mph 7mph 1006mB
Morning 0mm 0 1775m 2°C 2_7 0cm 92% 7mph 14mph 1010mB
Afternoon 0mm 0 1633m 6°C 6_4 0cm 86% 4mph 6mph 1015mB
Morning 0.151042mm 0.75 820m -3°C -3_5 6cm 100% 5mph 9mph 1027mB
Afternoon 0.00520833mm 0.0625 1037m -1°C -1_8 0cm 92% 8mph 13mph 1031mB
Morning 0mm 0 316m -6°C -6_5 0cm 29% 5mph 8mph 1038mB
Afternoon 0mm 0 1422m 4°C 4_5 0cm 31% 5mph 5mph 1030mB

16 day outlook at a glance

Forecast issued: 21/02/2019 17:53:47

Chat

Your comments and questions. In a resort? Let us know what it's like!


Characters left 250

For terms and conditions see Readers Comments on the Cookie and privacy policy page.